Oakes, ND

11:53 PM CDT on March 22, 2017 (GMT -0500)
Oakes

Weather History for K2D5 - March, 2013

Change the Weather History Date:

Sunday, March 17, 2013

  Actual Average (KP67) Record (KP67)
Temperature  
Mean Temperature 14 °F -  
Max Temperature 28 °F 29 °F 37 °F (1998)
Min Temperature 0 °F 15 °F 7 °F (1997)
Degree Days  
Heating Degree Days 51    
Moisture  
Dew Point 11 °F    
Average Humidity 92    
Maximum Humidity 100    
Minimum Humidity 79    
Precipitation  
Precipitation 0.32 in - - ()
Sea Level Pressure  
Sea Level Pressure 29.89 in    
Wind  
Wind Speed 14 mph (ESE)    
Max Wind Speed 29 mph    
Max Gust Speed 31 mph    
Visibility 7 miles    
Events Rain , Snow    
Averages and records for this station are not official NWS values.
T = Trace of Precipitation, MM = Missing Value Source: NWS Daily Summary

Daily Weather History Graph

Daily Weather History Graph

Search for Another Location

Airport or City:

Trip Planner

Search our weather history database for the weather conditions in past years. The results will help you decide how hot, cold, wet, or windy it might be!

Date:

Astronomy

Mar. 17, 2013 Rise Set
Actual Time 7:40 AM CDT 7:41 PM CDT
Civil Twilight 7:10 AM CDT 8:11 PM CDT
Nautical Twilight 6:35 AM CDT 8:46 PM CDT
Astronomical Twilight 6:00 AM CDT 9:22 PM CDT
Moon 10:36 AM CDT (3/17) 1:08 AM CDT (3/17)
Length of Visible Light 13h 00m
Length of Day
12h 00m
Waxing Crescent, 31% of the Moon is Illuminated
Mar 17
Waxing Crescent
Mar 19
First Quarter
Mar 27
Full
Apr 2
Last Quarter
Apr 10
New

Hourly Weather History & Observations

Time (CDT) Temp. Windchill Dew Point Humidity Pressure Visibility Wind Dir Wind Speed Gust Speed Precip Events Conditions
12:15 AM 1.4 °F -9.9 °F -0.4 °F 92% 30.24 in 10.0 mi NE 5.8 mph - N/A   Unknown
12:35 AM 1.4 °F -11.3 °F -0.4 °F 92% 30.23 in 10.0 mi NE 6.9 mph - N/A   Unknown
12:55 AM -0.4 °F -14.7 °F -2.2 °F 92% 30.22 in 10.0 mi NE 8.1 mph - N/A   Unknown
1:15 AM -0.4 °F -14.7 °F -2.2 °F 92% 30.22 in 10.0 mi ENE 8.1 mph - N/A   Unknown
1:35 AM -0.4 °F -14.7 °F -2.2 °F 92% 30.21 in 10.0 mi ENE 8.1 mph - N/A   Unknown
1:55 AM -0.4 °F -15.7 °F -2.2 °F 92% 30.20 in 10.0 mi ENE 9.2 mph - N/A   Unknown
2:15 AM -0.4 °F -15.7 °F -2.2 °F 92% 30.20 in 10.0 mi East 9.2 mph - N/A   Unknown
2:35 AM 1.4 °F -11.3 °F -0.4 °F 92% 30.20 in 10.0 mi East 6.9 mph - N/A   Unknown
2:55 AM 1.4 °F -14.5 °F -0.4 °F 92% 30.20 in 10.0 mi ENE 10.4 mph - N/A   Unknown
3:15 AM 3.2 °F -13.1 °F -0.4 °F 85% 30.19 in 10.0 mi ENE 11.5 mph - N/A   Unknown
3:35 AM 1.4 °F -15.3 °F -0.4 °F 92% 30.19 in 10.0 mi ENE 11.5 mph - N/A   Unknown
3:55 AM 1.4 °F -15.3 °F -0.4 °F 92% 30.18 in 10.0 mi East 11.5 mph - N/A   Unknown
4:15 AM 1.4 °F -16.1 °F -0.4 °F 92% 30.17 in 10.0 mi East 12.7 mph - N/A   Unknown
4:35 AM 1.4 °F -16.1 °F -0.4 °F 92% 30.15 in 10.0 mi East 12.7 mph - N/A   Unknown
4:55 AM 1.4 °F -16.9 °F -0.4 °F 92% 30.14 in 10.0 mi East 13.8 mph - N/A   Unknown
5:15 AM 1.4 °F -16.1 °F -0.4 °F 92% 30.13 in 10.0 mi East 12.7 mph - N/A Snow Light Snow
5:35 AM 1.4 °F -16.9 °F -0.4 °F 92% 30.13 in 10.0 mi East 13.8 mph - N/A   Unknown
5:55 AM 1.4 °F -18.8 °F -0.4 °F 92% 30.12 in 10.0 mi ESE 17.3 mph - N/A   Unknown
6:15 AM 1.4 °F -17.6 °F -0.4 °F 92% 30.11 in 10.0 mi ESE 15.0 mph - N/A   Unknown
6:35 AM 3.2 °F -15.9 °F -0.4 °F 85% 30.10 in 9.0 mi ESE 16.1 mph - N/A Snow Light Snow
6:55 AM 3.2 °F -15.9 °F -0.4 °F 85% 30.10 in 9.0 mi ESE 16.1 mph - N/A   Unknown
7:15 AM 3.2 °F -15.9 °F -0.4 °F 85% 30.09 in 10.0 mi ESE 16.1 mph - N/A   Unknown
7:35 AM 3.2 °F -15.3 °F -0.4 °F 85% 30.07 in 6.0 mi East 15.0 mph - N/A Snow Light Snow
7:55 AM 5.0 °F -13.0 °F 1.4 °F 85% 30.07 in 7.0 mi ESE 15.0 mph - N/A Snow Light Snow
8:15 AM 5.0 °F -13.0 °F 1.4 °F 85% 30.06 in 9.0 mi ESE 15.0 mph - N/A Snow Light Snow
8:35 AM 5.0 °F -11.6 °F 1.4 °F 85% 30.05 in 5.0 mi ESE 12.7 mph - 0.01 in Snow Light Snow
8:55 AM 5.0 °F -10.8 °F 3.2 °F 92% 30.03 in 6.0 mi ESE 11.5 mph - 0.02 in Snow Light Snow
9:15 AM 6.8 °F -10.7 °F 3.2 °F 85% 30.02 in 5.0 mi SE 15.0 mph - N/A Snow Light Snow
9:35 AM 6.8 °F -11.3 °F 5.0 °F 92% 30.00 in 5.0 mi SE 16.1 mph - N/A Snow Light Snow
9:55 AM 8.6 °F -10.5 °F 5.0 °F 85% 29.99 in 5.0 mi SE 19.6 mph - N/A Snow Light Snow
10:15 AM 8.6 °F -10.0 °F 5.0 °F 85% 29.98 in 7.0 mi SE 18.4 mph - N/A   Unknown
10:35 AM 8.6 °F -11.0 °F 6.8 °F 92% 29.96 in 8.0 mi ESE 20.7 mph - N/A   Unknown
10:55 AM 10.4 °F -9.1 °F 6.8 °F 85% 29.96 in 8.0 mi SE 21.9 mph - N/A   Unknown
11:15 AM 10.4 °F -8.2 °F 6.8 °F 85% 29.95 in 8.0 mi SE 19.6 mph - N/A   Unknown
11:35 AM 10.4 °F -8.2 °F 8.6 °F 92% 29.93 in 9.0 mi SE 19.6 mph - N/A   Unknown
11:55 AM 12.2 °F -5.3 °F 8.6 °F 85% 29.92 in 8.0 mi SE 18.4 mph - N/A   Unknown
12:15 PM 14.0 °F -5.1 °F 8.6 °F 79% 29.91 in 8.0 mi SE 24.2 mph - N/A   Unknown
12:35 PM 14.0 °F -4.3 °F 8.6 °F 79% 29.90 in 8.0 mi SE 21.9 mph - N/A   Unknown
12:55 PM 14.0 °F -4.3 °F 10.4 °F 86% 29.89 in 7.0 mi SE 21.9 mph 31.1 mph N/A   Unknown
1:15 PM 14.0 °F -5.8 °F 10.4 °F 86% 29.87 in 8.0 mi SE 26.5 mph 31.1 mph N/A   Unknown
1:35 PM 15.8 °F -3.1 °F 10.4 °F 79% 29.85 in 7.0 mi SE 25.3 mph - N/A   Unknown
1:55 PM 15.8 °F -3.7 °F 12.2 °F 86% 29.84 in 5.0 mi SE 27.6 mph - N/A   Mist
2:15 PM 15.8 °F -2.3 °F 14.0 °F 93% 29.82 in 8.0 mi SE 23.0 mph 29.9 mph N/A   Unknown
2:35 PM 17.6 °F -0.6 °F 14.0 °F 86% 29.80 in 9.0 mi SE 25.3 mph - N/A   Unknown
2:55 PM 17.6 °F 0.5 °F 14.0 °F 86% 29.79 in 10.0 mi SE 21.9 mph 28.8 mph N/A   Unknown
3:15 PM 17.6 °F -1.0 °F 15.8 °F 93% 29.76 in 9.0 mi SE 26.5 mph - N/A   Unknown
3:35 PM 19.4 °F 0.8 °F 17.6 °F 93% 29.73 in 8.0 mi SE 28.8 mph - N/A   Unknown
3:55 PM 19.4 °F 1.8 °F 17.6 °F 93% 29.72 in 8.0 mi SE 25.3 mph 31.1 mph N/A   Unknown
4:15 PM 21.2 °F 4.5 °F 17.6 °F 86% 29.71 in 9.0 mi ESE 24.2 mph - N/A   Unknown
4:35 PM 19.4 °F 4.1 °F 17.6 °F 93% 29.71 in 10.0 mi ESE 18.4 mph - N/A   Unknown
4:55 PM 19.4 °F 3.2 °F 17.6 °F 93% 29.68 in 1.2 mi East 20.7 mph - 0.01 in Snow Light Snow
5:15 PM 19.4 °F 0.8 °F 19.4 °F 100% 29.65 in 0.5 mi ESE 28.8 mph - N/A Snow Snow
5:35 PM 19.4 °F 1.8 °F 19.4 °F 100% 29.66 in 0.8 mi ESE 25.3 mph - N/A Rain Light Freezing Rain
5:55 PM 19.4 °F 2.1 °F 19.4 °F 100% 29.64 in 1.0 mi East 24.2 mph - N/A   Mist
6:15 PM 19.4 °F 4.1 °F 19.4 °F 100% 29.63 in 2.5 mi East 18.4 mph - N/A   Mist
6:35 PM 23.0 °F 7.2 °F 23.0 °F 100% 29.62 in 3.0 mi ESE 23.0 mph - N/A   Mist
6:55 PM 23.0 °F 6.9 °F 23.0 °F 100% 29.62 in 4.0 mi SE 24.2 mph - N/A   Mist
7:15 PM 24.8 °F 10.0 °F 24.8 °F 100% 29.61 in 2.5 mi SE 21.9 mph - N/A Snow Light Snow
7:35 PM 24.8 °F 11.5 °F 24.8 °F 100% 29.60 in 0.5 mi ESE 17.3 mph - 0.06 in Snow Snow
7:55 PM 24.8 °F 11.1 °F 24.8 °F 100% 29.59 in 0.5 mi ESE 18.4 mph - 0.13 in Snow Snow
8:15 PM 24.8 °F 10.3 °F 24.8 °F 100% 29.59 in 1.8 mi SE 20.7 mph - 0.06 in Snow Light Snow
8:35 PM 24.8 °F 11.1 °F 24.8 °F 100% 29.59 in 3.0 mi SE 18.4 mph - 0.10 in Snow Light Snow
8:55 PM 24.8 °F 11.1 °F 24.8 °F 100% 29.58 in 1.5 mi SE 18.4 mph - 0.13 in Snow Light Snow
9:15 PM 26.6 °F 13.4 °F 26.6 °F 100% 29.57 in 6.0 mi SE 18.4 mph - N/A Snow Light Snow
9:35 PM 26.6 °F 13.1 °F 26.6 °F 100% 29.56 in 4.0 mi SE 19.6 mph - 0.01 in Snow Light Snow
9:55 PM 26.6 °F 13.1 °F 26.6 °F 100% 29.56 in 10.0 mi SE 19.6 mph - 0.01 in Snow Light Snow
10:15 PM 28.4 °F 15.1 °F 28.4 °F 100% 29.55 in 9.0 mi SE 20.7 mph - N/A   Unknown
10:35 PM 28.4 °F 15.8 °F 28.4 °F 100% 29.55 in 4.0 mi SE 18.4 mph - N/A Rain Light Freezing Rain
10:55 PM 28.4 °F 17.5 °F 28.4 °F 100% 29.54 in 2.5 mi SE 13.8 mph - N/A Snow Light Snow
11:15 PM 28.4 °F 17.5 °F 28.4 °F 100% 29.53 in 2.5 mi SE 13.8 mph - N/A Snow Light Snow
11:35 PM 28.4 °F 17.0 °F 28.4 °F 100% 29.51 in 5.0 mi SE 15.0 mph - N/A   Mist
11:55 PM 28.4 °F 17.0 °F 28.4 °F 100% 29.50 in 1.0 mi SE 15.0 mph - 0.02 in Snow Light Snow